Preview of NWS' New Version of Forecast
This preview is not operational and should not be used for support decisions.

Regional Weather Roundup (RWR)

Issued by National Weather Service (NWS)

                            
000
ASUS46 KPQR 240010
RWROR 

OREGON REGIONAL WEATHER ROUNDUP
NATIONAL WEATHER SERVICE PORTLAND OR
500 PM PDT TUE APR 23 2019

NOTE: "FAIR" INDICATES FEW OR NO CLOUDS BELOW 12,000 FEET WITH
NO SIGNIFICANT WEATHER AND/OR OBSTRUCTIONS TO VISIBILITY.

ORZ001>013-240100-
NORTHWEST OREGON

  
CITY           SKY/WX    TMP DP  RH WIND       PRES   REMARKS
ASTORIA        CLOUDY    52  42  69 NW15      30.26S                  
6HR MIN TEMP:  51; 6HR MAX TEMP:  54; 6HR PCP: TRACE;                

TILLAMOOK      PTSUNNY   54  46  76 W17       30.27S                  
NEWPORT        CLOUDY    52  48  87 N14       30.28S                  
PORTLAND       CLOUDY    62  49  62 NW10      30.17F                  
6HR MIN TEMP:  60; 6HR MAX TEMP:  66;                                

VANCOUVER WA   CLOUDY    61  48  62 N10G17    30.17F                  
6HR MIN TEMP:  59; 6HR MAX TEMP:  66;                                

SCAPPOOSE      PTSUNNY   63  49  60 NW13G20   30.17F                  
6HR MIN TEMP:  61; 6HR MAX TEMP:  66;                                

HILLSBORO      PTSUNNY   63  52  67 NE7       30.16F                  
6HR MIN TEMP:  59; 6HR MAX TEMP:  68;                                

AURORA         PTSUNNY   66  51  58 SW8       30.18F                  
6HR MIN TEMP:  60; 6HR MAX TEMP:  67;                                

MCMINNVILLE    PTSUNNY   62  50  64 W14       30.17F                  
6HR MIN TEMP:  60; 6HR MAX TEMP:  66;                                

SALEM          PTSUNNY   64  52  64 W10       30.16F                  
6HR MIN TEMP:  59; 6HR MAX TEMP:  67;                                

CORVALLIS      MOSUNNY   62  52  69 NW10      30.19F                  
EUGENE         PTSUNNY   67  56  67 N9        30.17F                  
6HR MIN TEMP:  60; 6HR MAX TEMP:  69;                                

$$

ORZ021-028-240100-
SOUTHWEST OREGON

  
CITY           SKY/WX    TMP DP  RH WIND       PRES   REMARKS
NORTH BEND     PTSUNNY   55  51  86 N22       30.25S                  
6HR MIN TEMP:  55; 6HR MAX TEMP:  62;                                

BROOKINGS      MOSUNNY   70  55  59 NW14G24   30.11F                  
ROSEBURG       MOSUNNY   76  54  46 N9        30.13S                  
6HR MIN TEMP:  65; 6HR MAX TEMP:  79;                                

SEXTON SUMMIT  MOSUNNY   68  49  50 VRB5      30.19F                  
6HR MIN TEMP:  59; 6HR MAX TEMP:  69;                                

GRANTS PASS    FAIR      81  48  32 VRB6G13   30.10S                  
MEDFORD        MOSUNNY   80  45  28 NW5       30.08F                  
$$

ORZ014>016-041-240100-
COLUMBIA GORGE

  
CITY           SKY/WX    TMP DP  RH WIND       PRES   REMARKS
TROUTDALE      CLOUDY    64  52  64 NW6       30.16F                  
6HR MIN TEMP:  58; 6HR MAX TEMP:  65;                                

HOOD RIVER     CLOUDY    63  50  63 MISG      30.13F                  
THE DALLES     MOSUNNY   67  48  50 NW23      30.09F                  
6HR MIN TEMP:  62; 6HR MAX TEMP:  69;                                

$$

ORZ029>031-041-044-049-050-061>064-502-503-505>511-240100-
EASTERN OREGON

  
CITY           SKY/WX    TMP DP  RH WIND       PRES   REMARKS
MADRAS         PTSUNNY   68  46  45 SW17      30.14S                  
REDMOND        PTSUNNY   70  44  39 NW15G26   30.12F                  
6HR MIN TEMP:  64; 6HR MAX TEMP:  82;                                

BEND           PTSUNNY   68  43  40 NW13      30.13S                  
PRINEVILLE     PTSUNNY   68  46  45 NW21      30.13F                  
KLAMATH FALLS  SUNNY     72  45  37 NW15      30.15F                  
6HR MIN TEMP:  62; 6HR MAX TEMP:  73;                                

LAKEVIEW       SUNNY     68  47  46 S9        30.17F                  
HERMISTON      PTSUNNY   74  41  30 W25G32    30.03F                  
6HR MIN TEMP:  70; 6HR MAX TEMP:  76;                                

PENDLETON      PTSUNNY   67  50  54 W16G26    30.05F                  
6HR MIN TEMP:  64; 6HR MAX TEMP:  70;                                

JOHN DAY       MOSUNNY   69  47  44 W14       30.11S                  
MEACHAM        CLOUDY    59  49  69 VRB3      30.12F                  
6HR MIN TEMP:  57; 6HR MAX TEMP:  63; 6HR PCP: TRACE;                

LA GRANDE      RAIN      61  54  77 W6        30.10F                  
6HR MIN TEMP:  60; 6HR MAX TEMP:  66; 6HR PCP:  0.11;                

BAKER CITY     PTSUNNY   68  48  48 N12       30.09F                  
6HR MIN TEMP:  67; 6HR MAX TEMP:  74;                                

BURNS          MOSUNNY   73  42  32 W13G20    30.11F                  
6HR MIN TEMP:  63; 6HR MAX TEMP:  74;                                

ROME             N/A     75  40  28 NW8       30.09F                  
6HR MIN TEMP:  65; 6HR MAX TEMP:  75;                                

ONTARIO        CLOUDY    77  47  34 CALM      30.03F                  
6HR MIN TEMP:  71; 6HR MAX TEMP:  78; 6HR PCP:  0.01;                

$$